Time,TemperatureF,DewpointF,PressureIn,WindDirection,WindDirectionDegrees,WindSpeedMPH,WindSpeedGustMPH,Humidity,HourlyPrecipIn,Conditions,Clouds,dailyrainin,SoftwareType,DateUTC
2013-10-23 00:14:00,45.0,38.0,29.75,NE,47,1.0,3.0,75,0.00,,,0.00,,2013-10-23 04:14:00,
2013-10-23 00:24:00,45.0,37.0,29.75,North,352,0.0,3.0,74,0.00,,,0.00,,2013-10-23 04:24:00,
2013-10-23 00:45:00,45.0,36.0,29.76,NNE,25,0.0,3.0,71,0.00,,,0.00,,2013-10-23 04:45:00,
2013-10-23 00:54:00,45.0,36.0,29.75,NNW,341,0.0,1.0,70,0.00,,,0.00,,2013-10-23 04:54:00,
2013-10-23 01:23:00,44.0,34.0,29.76,North,356,0.0,0.0,69,0.00,,,0.00,,2013-10-23 05:23:00,
2013-10-23 01:53:00,44.0,34.0,29.77,NW,323,0.0,1.0,69,0.00,,,0.00,,2013-10-23 05:53:00,
2013-10-23 02:22:00,43.0,34.0,29.77,NW,323,0.0,0.0,69,0.00,,,0.00,,2013-10-23 06:22:00,
2013-10-23 02:42:00,43.0,34.0,29.76,NW,323,0.0,0.0,70,0.00,,,0.00,,2013-10-23 06:42:00,
2013-10-23 02:52:00,42.0,33.0,29.76,NW,323,0.0,0.0,71,0.00,,,0.00,,2013-10-23 06:52:00,
2013-10-23 03:22:00,42.0,34.0,29.76,NW,323,0.0,0.0,72,0.00,,,0.00,,2013-10-23 07:22:00,
2013-10-23 03:52:00,41.0,33.0,29.75,North,354,0.0,1.0,73,0.00,,,0.00,,2013-10-23 07:52:00,
2013-10-23 04:12:00,41.0,33.0,29.75,North,354,0.0,0.0,74,0.00,,,0.00,,2013-10-23 08:12:00,
2013-10-23 04:22:00,40.0,33.0,29.75,North,354,0.0,0.0,77,0.00,,,0.00,,2013-10-23 08:22:00,
2013-10-23 04:53:00,40.0,35.0,29.74,North,354,0.0,0.0,81,0.00,,,0.00,,2013-10-23 08:53:00,
2013-10-23 05:12:00,39.0,34.0,29.74,North,354,0.0,0.0,83,0.00,,,0.00,,2013-10-23 09:12:00,
2013-10-23 05:22:00,39.0,34.0,29.74,North,354,0.0,0.0,83,0.00,,,0.00,,2013-10-23 09:22:00,
2013-10-23 05:43:00,39.0,35.0,29.74,North,354,0.0,0.0,85,0.00,,,0.00,,2013-10-23 09:43:00,
2013-10-23 05:53:00,38.0,34.0,29.74,North,354,0.0,0.0,86,0.00,,,0.00,,2013-10-23 09:53:00,
2013-10-23 06:23:00,38.0,34.0,29.73,North,354,0.0,0.0,87,0.00,,,0.00,,2013-10-23 10:23:00,
2013-10-23 06:53:00,38.0,35.0,29.72,North,354,0.0,0.0,88,0.00,,,0.00,,2013-10-23 10:53:00,
2013-10-23 07:22:00,38.0,35.0,29.73,North,354,0.0,0.0,88,0.00,,,0.00,,2013-10-23 11:22:00,
2013-10-23 07:42:00,37.0,34.0,29.74,North,354,0.0,0.0,89,0.00,,,0.00,,2013-10-23 11:42:00,
2013-10-23 07:52:00,37.0,34.0,29.73,North,354,0.0,0.0,90,0.00,,,0.00,,2013-10-23 11:52:00,
2013-10-23 08:22:00,37.0,35.0,29.74,North,354,0.0,0.0,91,0.00,,,0.00,,2013-10-23 12:22:00,
2013-10-23 08:42:00,38.0,36.0,29.74,North,354,0.0,0.0,91,0.00,,,0.00,,2013-10-23 12:42:00,
2013-10-23 08:52:00,40.0,36.0,29.72,North,354,0.0,0.0,86,0.00,,,0.00,,2013-10-23 12:52:00,
2013-10-23 09:12:00,41.0,37.0,29.73,North,354,0.0,0.0,84,0.00,,,0.00,,2013-10-23 13:12:00,
2013-10-23 09:22:00,42.0,37.0,29.73,North,354,0.0,0.0,83,0.00,,,0.00,,2013-10-23 13:22:00,
2013-10-23 09:42:00,43.0,37.0,29.72,North,354,0.0,0.0,79,0.00,,,0.00,,2013-10-23 13:42:00,
2013-10-23 09:52:00,44.0,37.0,29.72,North,354,0.0,0.0,76,0.00,,,0.00,,2013-10-23 13:52:00,
2013-10-23 10:22:00,46.0,35.0,29.71,North,354,0.0,0.0,66,0.00,,,0.00,,2013-10-23 14:22:00,
2013-10-23 10:52:00,48.0,34.0,29.71,North,354,0.0,1.0,59,0.00,,,0.00,,2013-10-23 14:52:00,
2013-10-23 11:22:00,48.0,34.0,29.70,North,354,0.0,1.0,58,0.00,,,0.00,,2013-10-23 15:22:00,
2013-10-23 11:43:00,48.0,33.0,29.70,North,354,0.0,1.0,55,0.00,,,0.00,,2013-10-23 15:43:00,
2013-10-23 11:53:00,48.0,33.0,29.69,North,354,0.0,1.0,55,0.00,,,0.00,,2013-10-23 15:53:00,
2013-10-23 12:23:00,48.0,32.0,29.67,North,354,0.0,0.0,53,0.00,,,0.00,,2013-10-23 16:23:00,
2013-10-23 12:53:00,48.0,32.0,29.66,North,354,0.0,1.0,54,0.00,,,0.00,,2013-10-23 16:53:00,
2013-10-23 13:23:00,49.0,33.0,29.65,North,354,0.0,1.0,54,0.00,,,0.00,,2013-10-23 17:23:00,
2013-10-23 13:44:00,49.0,33.0,29.65,North,354,0.0,2.0,54,0.00,,,0.00,,2013-10-23 17:44:00,
2013-10-23 13:52:00,49.0,32.0,29.63,North,3,0.0,1.0,52,0.00,,,0.00,,2013-10-23 17:52:00,
2013-10-23 14:12:00,49.0,31.0,29.62,North,3,0.0,1.0,50,0.00,,,0.00,,2013-10-23 18:12:00,
2013-10-23 14:22:00,49.0,32.0,29.60,North,349,0.0,0.0,51,0.00,,,0.00,,2013-10-23 18:22:00,
2013-10-23 14:42:00,49.0,32.0,29.59,North,349,0.0,0.0,52,0.00,,,0.00,,2013-10-23 18:42:00,
2013-10-23 14:52:00,49.0,31.0,29.59,North,349,0.0,0.0,50,0.00,,,0.00,,2013-10-23 18:52:00,
2013-10-23 15:12:00,49.0,32.0,29.57,North,349,0.0,0.0,52,0.00,,,0.00,,2013-10-23 19:12:00,
2013-10-23 15:22:00,49.0,33.0,29.56,North,349,0.0,0.0,53,0.00,,,0.00,,2013-10-23 19:22:00,
2013-10-23 15:42:00,49.0,32.0,29.57,North,349,0.0,0.0,52,0.00,,,0.00,,2013-10-23 19:42:00,
2013-10-23 15:53:00,49.0,33.0,29.58,North,349,0.0,0.0,54,0.00,,,0.00,,2013-10-23 19:53:00,
2013-10-23 16:11:00,49.0,33.0,29.57,North,349,0.0,0.0,53,0.00,,,0.00,,2013-10-23 20:11:00,
2013-10-23 16:22:00,49.0,34.0,29.57,North,349,0.0,0.0,55,0.00,,,0.00,,2013-10-23 20:22:00,
2013-10-23 16:52:00,49.0,34.0,29.58,North,349,0.0,1.0,56,0.00,,,0.00,,2013-10-23 20:52:00,
2013-10-23 17:12:00,49.0,34.0,29.57,North,349,0.0,1.0,56,0.00,,,0.00,,2013-10-23 21:12:00,
2013-10-23 17:22:00,49.0,34.0,29.58,North,349,0.0,0.0,57,0.00,,,0.00,,2013-10-23 21:22:00,
2013-10-23 17:43:00,49.0,35.0,29.58,North,349,0.0,0.0,58,0.00,,,0.00,,2013-10-23 21:43:00,
2013-10-23 17:54:00,48.0,34.0,29.57,North,349,0.0,0.0,58,0.00,,,0.00,,2013-10-23 21:54:00,
2013-10-23 18:13:00,48.0,34.0,29.58,North,349,0.0,0.0,59,0.00,,,0.00,,2013-10-23 22:13:00,
2013-10-23 18:24:00,47.0,34.0,29.58,North,349,0.0,0.0,61,0.00,,,0.00,,2013-10-23 22:24:00,
2013-10-23 18:54:00,47.0,36.0,29.58,North,349,0.0,0.0,65,0.00,,,0.00,,2013-10-23 22:54:00,
2013-10-23 19:23:00,46.0,35.0,29.58,North,349,0.0,0.0,66,0.00,,,0.00,,2013-10-23 23:23:00,
2013-10-23 19:53:00,45.0,35.0,29.59,North,349,0.0,0.0,69,0.00,,,0.00,,2013-10-23 23:53:00,
2013-10-23 20:12:00,45.0,36.0,29.58,North,349,0.0,0.0,70,0.00,,,0.00,,2013-10-24 00:12:00,
2013-10-23 20:22:00,45.0,35.0,29.57,North,349,0.0,0.0,69,0.00,,,0.00,,2013-10-24 00:22:00,
2013-10-23 20:52:00,44.0,34.0,29.57,North,349,0.0,0.0,69,0.00,,,0.00,,2013-10-24 00:52:00,
2013-10-23 21:11:00,44.0,34.0,29.59,North,349,0.0,0.0,69,0.00,,,0.00,,2013-10-24 01:11:00,
2013-10-23 21:22:00,44.0,34.0,29.59,North,349,0.0,0.0,69,0.00,,,0.00,,2013-10-24 01:22:00,
2013-10-23 21:42:00,44.0,34.0,29.59,North,349,0.0,0.0,69,0.00,,,0.00,,2013-10-24 01:42:00,
2013-10-23 21:52:00,44.0,34.0,29.59,North,349,0.0,1.0,69,0.00,,,0.00,,2013-10-24 01:52:00,
2013-10-23 22:12:00,44.0,34.0,29.59,North,349,0.0,0.0,69,0.00,,,0.00,,2013-10-24 02:12:00,
2013-10-23 22:22:00,44.0,35.0,29.60,North,349,0.0,1.0,70,0.00,,,0.00,,2013-10-24 02:22:00,
2013-10-23 23:22:00,45.0,35.0,29.60,NNW,329,0.0,2.0,69,0.00,,,0.00,,2013-10-24 03:22:00,
2013-10-23 23:55:00,45.0,35.0,29.60,NNW,330,0.0,3.0,67,0.00,,,0.00,,2013-10-24 03:55:00,